{"data":{"norad_id":58623,"epoch":"2026-09-20T02:26:13.446528Z","epoch_age_seconds":184170,"freshness":"STALE","line1":"1 58623U 23203F   26263.10154452  .00000340  00000+0  21871-4 0  9994","line2":"2 58623  43.0000  49.2043 0001087 262.3296  97.7433 15.27577869153291","mean_motion":15.27577869,"eccentricity":0.0001087,"inclination_deg":43,"raan_deg":49.2043,"arg_perigee_deg":262.3296,"mean_anomaly_deg":97.7433,"bstar":2.1871e-5,"rev_number":15329,"period_min":94.266880217548,"perigee_km":482.30966540544,"apogee_km":483.80128864995,"semimajor_km":6861.1924770277,"source":"CELESTRAK","updated_at":"2026-09-21T09:00:33.922464Z"}}